This demonstration page uses our WeatherBlox Daily Observations layout. Learn more.

Hourly Observations for April 16, 2019

Temp ( °F °C ) Dew Point ( °F °C ) Humidity (%) Winds ( mph kmh ) Pressure ( in mb ) Visibility ( mi km ) Precip ( " mm )
12:15 am 00:15 Clear 46 8 34 1 62 62 NW 6 9 30.09 1019 10 16.09344 0 0
12:30 am 00:30 Clear 45 7 36 2 71 71 W 7 11 30.09 1019 10 16.09344 0 0
12:55 am 00:55 Clear 46 8 36 2 66 66 W 6 9 30.12 1020 10 16.09344 0 0
1:15 am 01:15 Clear 46 8 36 2 66 66 W 8 13 30.12 1020 10 16.09344 0 0
1:35 am 01:35 Clear 46 8 36 2 66 66 W 10 17 30.12 1020 10 16.09344 0 0
1:55 am 01:55 Clear 46 8 36 2 66 66 WNW 10 17 30.12 1020 10 16.09344 0 0
2:15 am 02:15 Clear 46 8 36 2 66 66 WNW 10 17 30.12 1020 10 16.09344 0 0
2:35 am 02:35 Clear 45 7 36 2 71 71 WNW 7 11 30.12 1020 10 16.09344 0 0
2:55 am 02:55 Clear 45 7 36 2 71 71 W 7 11 30.12 1020 10 16.09344 0 0
3:15 am 03:15 Clear 46 8 36 2 66 66 W 13 20 30.15 1021 10 16.09344 0 0
3:35 am 03:35 Clear 46 8 36 2 66 66 W 10 17 30.15 1021 10 16.09344 0 0
3:55 am 03:55 Clear 46 8 36 2 66 66 W 10 17 30.15 1021 10 16.09344 0 0
4:15 am 04:15 Clear 46 8 36 2 66 66 WNW 13 20 30.15 1021 10 16.09344 0 0
4:35 am 04:35 Clear 46 8 36 2 66 66 WNW 12 19 30.15 1021 10 16.09344 0 0
4:55 am 04:55 Clear 46 8 36 2 66 66 WNW 13 20 30.18 1022 10 16.09344 0 0
5:15 am 05:15 Clear 45 7 36 2 71 71 W 7 11 30.18 1022 10 16.09344 0 0
5:35 am 05:35 Clear 45 7 36 2 71 71 WNW 9 15 30.18 1022 10 16.09344 0 0
5:55 am 05:55 Clear 45 7 36 2 71 71 WNW 9 15 30.18 1022 10 16.09344 0 0
6:15 am 06:15 Clear 45 7 36 2 71 71 W 7 11 30.21 1023 10 16.09344 0 0
6:35 am 06:35 Sunny 45 7 36 2 71 71 WNW 7 11 30.21 1023 10 16.09344 0 0
6:55 am 06:55 Sunny 46 8 36 2 66 66 WNW 9 15 30.21 1023 10 16.09344 0 0
7:10 am 07:10 Sunny 46 8 37 3 71 71 NW 13 20 30.24 1024 10 16.09344 0 0
7:35 am 07:35 Sunny 46 8 37 3 71 71 WNW 9 15 30.24 1024 10 16.09344 0 0
7:55 am 07:55 Sunny 48 9 37 3 66 66 WNW 13 20 30.24 1024 10 16.09344 0 0
8:15 am 08:15 Sunny 48 9 37 3 66 66 NW 13 20 30.24 1024 10 16.09344 0 0
8:35 am 08:35 Sunny 50 10 37 3 62 62 NW 16 26 30.24 1024 10 16.09344 0 0
8:55 am 08:55 Sunny 50 10 37 3 62 62 NW 14 22 30.24 1024 10 16.09344 0 0
9:15 am 09:15 Sunny 52 11 37 3 58 58 W 13 20 30.24 1024 10 16.09344 0 0
9:35 am 09:35 Sunny 52 11 39 4 62 62 WNW 6 9 30.24 1024 10 16.09344 0 0
9:55 am 09:55 Sunny 54 12 37 3 54 54 NNW 7 11 30.21 1023 10 16.09344 0 0
10:15 am 10:15 Sunny 54 12 39 4 58 58 WNW 12 19 30.21 1023 10 16.09344 0 0
10:35 am 10:35 Sunny 54 12 37 3 54 54 NW 9 15 30.21 1023 10 16.09344 0 0
10:55 am 10:55 Sunny 54 12 39 4 58 58 NW 9 15 30.21 1023 10 16.09344 0 0
11:15 am 11:15 Sunny 54 12 39 4 58 58 NW 8 13 30.21 1023 10 16.09344 0 0
11:35 am 11:35 Sunny 55 13 41 5 59 59 WNW 9 15 30.21 1023 10 16.09344 0 0
11:55 am 11:55 Sunny 57 14 39 4 51 51 NW 8 13 30.21 1023 10 16.09344 0 0
12:15 pm 12:15 Sunny 59 15 39 4 48 48 WNW 13 20 30.21 1023 10 16.09344 0 0
12:35 pm 12:35 Sunny 59 15 37 3 45 45 WNW 7 11 30.18 1022 10 16.09344 0 0
12:55 pm 12:55 Sunny 61 16 37 3 42 42 W 6 9 30.18 1022 10 16.09344 0 0
1:15 pm 13:15 Sunny 61 16 37 3 42 42 W 5 7 30.18 1022 10 16.09344 0 0
1:35 pm 13:35 Sunny 61 16 37 3 42 42 Calm 30.15 1021 10 16.09344 0 0
1:55 pm 13:55 Sunny 63 17 41 5 45 45 W 6 9 30.15 1021 10 16.09344 0 0
2:15 pm 14:15 Sunny 64 18 41 5 43 43 WNW 6 9 30.15 1021 10 16.09344 0 0
2:35 pm 14:35 Sunny 64 18 39 4 40 40 W 7 11 30.12 1020 10 16.09344 0 0
2:55 pm 14:55 Sunny 64 18 39 4 40 40 W 7 11 30.12 1020 10 16.09344 0 0
3:15 pm 15:15 Sunny 66 19 39 4 37 37 WNW 7 11 30.09 1019 10 16.09344 0 0
3:35 pm 15:35 Sunny 68 20 41 5 38 38 SW 7 11 30.09 1019 10 16.09344 0 0
3:55 pm 15:55 Sunny 68 20 41 5 38 38 SW 6 9 30.06 1018 10 16.09344 0 0
4:15 pm 16:15 Sunny 68 20 41 5 38 38 WSW 6 9 30.06 1018 10 16.09344 0 0
4:35 pm 16:35 Sunny 68 20 39 4 35 35 WSW 8 13 30.06 1018 10 16.09344 0 0
4:55 pm 16:55 Sunny 70 21 39 4 33 33 SSW 8 13 30.06 1018 10 16.09344 0 0
5:15 pm 17:15 Sunny 70 21 39 4 33 33 S 7 11 30.03 1017 10 16.09344 0 0
5:35 pm 17:35 Sunny 70 21 41 5 35 35 SW 8 13 30.03 1017 10 16.09344 0 0
5:55 pm 17:55 Sunny 70 21 41 5 35 35 SSW 8 13 30.03 1017 10 16.09344 0 0
6:15 pm 18:15 Sunny 70 21 41 5 35 35 S 9 15 30.03 1017 10 16.09344 0 0
6:35 pm 18:35 Sunny 68 20 41 5 38 38 S 8 13 30.03 1017 10 16.09344 0 0
6:55 pm 18:55 Sunny 68 20 41 5 38 38 SSW 8 13 30.03 1017 10 16.09344 0 0
7:15 pm 19:15 Sunny 68 20 41 5 38 38 SSW 7 11 30.03 1017 10 16.09344 0 0
7:35 pm 19:35 Sunny 64 18 41 5 43 43 S 6 9 30.03 1017 10 16.09344 0 0
7:55 pm 19:55 Clear 64 18 39 4 40 40 S 5 7 30.03 1017 10 16.09344 0 0
8:15 pm 20:15 Clear 64 18 39 4 40 40 SSW 6 9 30.03 1017 10 16.09344 0 0
8:35 pm 20:35 Clear 64 18 39 4 40 40 SSW 5 7 30.03 1017 10 16.09344 0 0
8:55 pm 20:55 Mostly Cloudy 63 17 41 5 45 45 SSW 6 9 30.03 1017 10 16.09344 0 0
9:15 pm 21:15 Cloudy 63 17 41 5 45 45 SSW 6 9 30.06 1018 10 16.09344 0 0
9:35 pm 21:35 Cloudy 63 17 41 5 45 45 SSW 3 6 30.06 1018 10 16.09344 0 0
9:55 pm 21:55 Cloudy 63 17 41 5 45 45 SSW 6 9 30.03 1017 10 16.09344 0 0
10:15 pm 22:15 Cloudy 61 16 41 5 48 48 SSW 5 7 30.03 1017 10 16.09344 0 0
10:35 pm 22:35 Partly Cloudy 61 16 41 5 48 48 SSW 3 6 30.03 1017 10 16.09344 0 0
10:55 pm 22:55 Clear 59 15 41 5 51 51 Calm 30.03 1017 10 16.09344 0 0
11:15 pm 23:15 Clear 57 14 41 5 55 55 SSW 3 6 30.03 1017 10 16.09344 0 0
11:35 pm 23:35 Clear 54 12 43 6 67 67 Calm 30.03 1017 10 16.09344 0 0
11:55 pm 23:55 Clear 55 13 43 6 63 63 Calm 30.03 1017 10 16.09344 0 0

Powered by AerisWeather